Regional Weather Roundup
Issued by NWS

Home | Current Version | Previous Version | Graphics & Text | Print | Product List | Glossary Off
Versions: 1 2 3 4 5 6 7 8 9 10 11 12 13 14 15 16 17 18 19 20 21 22 23 24 25 26 27 28 29 30 31 32 33 34 35 36 37 38 39 40 41 42 43 44 45 46 47 48 49 50

000
ASUS43 KMPX 271610
RWRMN
WEATHER ROUNDUP FOR MINNESOTA
NATIONAL WEATHER SERVICE TWIN CITIES/CHANHASSEN MN
1000 AM CST FRI FEB 27 2015


NOTE: "FAIR" INDICATES FEW OR NO CLOUDS BELOW 12,000 FEET WITH NO
SIGNIFICANT WEATHER AND/OR OBSTRUCTIONS TO VISIBILITY. N/A MEANS
CURRENT SKY AND/OR WEATHER CONDITIONS ARE NOT AVAILABLE.

MNZ060>063-068>070-271700-
   Twin Cities Metro

CITY           SKY/WX    TMP DP  RH WIND       PRES   REMARKS
TWIN CITIES    SUNNY      4  -5  66 SW6       30.56S WCI  -7
ST PAUL        SUNNY      6  -4  63 VRB5      30.58S WCI  -3
CRYSTAL        SUNNY      7  -3  64 W6        30.54S WCI  -3
BLAINE         SUNNY      9   0  66 W5        30.54R WCI   0
LAKEVILLE      SUNNY      1  -6  71 W2        30.55S
EDEN PRAIRIE   SUNNY      1  -6  72 SW8       30.55S WCI -13
SOUTH ST PAUL  SUNNY      6  -4  65 W3        30.56S
LAKE ELMO      FAIR       7   0  72 SW8       30.55S WCI  -6
$$
MNZ001>005-007-008-013>017-022>024-027-028-271700-
   Northwest Minnesota

CITY           SKY/WX    TMP DP  RH WIND       PRES   REMARKS
BEMIDJI        SUNNY      2  -5  70 SW5       30.39S WCI  -7
HALLOCK        SUNNY     -4 -11  71 S10       30.41R WCI -21
ROSEAU         SUNNY     -2  -9  71 SW9       30.37F WCI -18
WARROAD        SUNNY      0  -9  65 SW12      30.36S WCI -18
THIEF RVR FALL SUNNY     -6 -13  71 SW8       30.42R WCI -21
CROOKSTON      SUNNY      0  -8  71 SW7       30.46S WCI -13
FOSSTON        SUNNY     -2  -8  78 SW12      30.42S WCI -20
DETROIT LAKES  SUNNY      1  -4  78 SW6       30.44S WCI -10
MOORHEAD       SUNNY      1  -6  71 SW7       30.50S WCI -11
PARK RAPIDS    SUNNY      3  -4  72 W5        30.41F WCI  -6
MAHNOMEN       FAIR       0  -4  82 SW10      30.43S WCI -16
$$
MNZ006-009>011-018-025>026-271700-
   North Central Minnesota

CITY           SKY/WX    TMP DP  RH WIND       PRES   REMARKS
BAUDETTE       SUNNY     -2  -9  72 CALM      30.34F
FLAG ISLAND    MOSUNNY   -8 -15  71 SE7       30.33S WCI -22
INTL FALLS     SUNNY      0  -9  65 W7        30.37S WCI -13
WASKISH        SUNNY      0  -8  71 W6        30.39S WCI -12
BIG FORK       SUNNY      5  -8  56 W6        30.38S WCI  -6
LONGVILLE      SUNNY      1  -8  66 SW5       30.42S WCI  -8
GRAND RAPIDS   SUNNY      1  -6  71 SW6       30.39S WCI -10
CRANE LAKE     SUNNY      1  -9  60 SW3       30.40S
ORR            SUNNY      3  -9  55 CALM      30.34S
COOK           SUNNY      1  -9  60 W6        30.38S WCI -10
WALKER         FAIR       5  -8  56 W5        30.40S WCI  -4
$$
MNZ012-019>021-037-271700-
   Northeast Minnesota

CITY           SKY/WX    TMP DP  RH WIND       PRES   REMARKS
DULUTH         SUNNY      5  -8  55 W12       30.39S WCI -11
ELY            SUNNY      1  -9  60 W6        30.35F WCI -10
HIBBING        SUNNY      4  -7  60 VRB3      30.39S
EVELETH        SUNNY      1  -8  66 SW3       30.39S
DULUTH HARBOR  SUNNY      3  -6  66 CALM      30.50R
TWO HARBORS    SUNNY      9  -6  52 W9G16     30.39S WCI  -5
SILVER BAY     SUNNY      9  -9  43 W5        30.38S WCI   0
GRAND MARAIS     N/A     13  -9  37 VRB7G22   30.40S WCI   3
G MARAIS ARPRT SUNNY      7 -15  36 W8        30.27S WCI  -6
$$
MNZ029>031-032-039>041-046>048-054>057-064-271700-
   West Central Minnesota

CITY           SKY/WX    TMP DP  RH WIND       PRES   REMARKS
FERGUS FALLS   SUNNY      0  -8  71 W6        30.53S WCI -12
WHEATON        SUNNY      1  -8  66 SW3       30.54S
MORRIS         SUNNY      3  -8  60 W6        30.51R WCI  -8
ALEXANDRIA     SUNNY     24  -6  26 SW8       30.47S WCI  15
ELBOW LAKE     FAIR      -3  -7  84 W5        30.49S WCI -14
WADENA         SUNNY      0  -6  78 SW8       30.44S WCI -15
GLENWOOD       SUNNY      1  -2  85 SW8       30.49S WCI -12
APPLETON       SUNNY      3  -6  66 SW3       30.55R
BENSON         SUNNY      3  -6  66 NW3       30.53R
ORTONVILLE     SUNNY      3  -8  60 SW3       30.52S
MADISON        SUNNY      3  -6  66 W6        30.54S WCI  -8
WILLMAR        FAIR       0  -8  71 W5        30.54R WCI -10
$$
MNZ033>034-036-042>043-049>051-058-059-271700-
   Central Minnesota

CITY           SKY/WX    TMP DP  RH WIND       PRES   REMARKS
ST CLOUD       SUNNY      4  -5  66 SW8       30.51S WCI  -9
SAUK CENTRE    FAIR       3  -5  70 SW9       30.49S WCI -12
PAYNESVILLE    SUNNY      2  -5  73 SW9       30.52R WCI -13
AITKIN         SUNNY      7  -6  56 CALM      30.44S
PINE RIVER     SUNNY      3  -6  66 W5        30.45F WCI  -6
BRAINERD       SUNNY      1  -6  72 SW6       30.46S WCI -10
STAPLES        SUNNY      0  -4  85 CALM      30.45S
LONG PRAIRIE   FAIR       1  -6  71 SW8       30.48R WCI -12
LITTLE FALLS   SUNNY      3  -6  66 SW3       30.50R
LITCHFIELD     SUNNY      3  -6  66 CALM      30.53S
BUFFALO        SUNNY      3  -4  72 SW3       30.55R
MAPLE LAKE     SUNNY      7  -1  70 SW6       30.54S WCI  -4
$$
MNZ037-044-045-052-053-271700-
   East Central Minnesota

CITY           SKY/WX    TMP DP  RH WIND       PRES   REMARKS
PRINCETON      SUNNY      7  -2  66 SW6       30.51S WCI  -3
MORA           SUNNY      5  -6  61 CALM      30.51S
CAMBRIDGE      SUNNY      5  -6  61 CALM      30.51R
RUSH CITY      MOSUNNY    4  -5  65 CALM      30.53S
MOOSE LAKE     SUNNY      5  -8  56 CALM      30.45S
HINCKLEY       FAIR       5  -4  66 CALM      30.50R
CLOQUET        SUNNY      3  -8  60 W6        30.42R WCI  -8
MCGREGOR       SUNNY      5  -4  66 SW5       30.45S WCI  -4
$$
MNZ071>073-080-081-089-090-097-098-271700-
   Southwest Minnesota

CITY           SKY/WX    TMP DP  RH WIND       PRES   REMARKS
MONTEVIDEO     SUNNY      7   0  72 W3        30.56R
GRANITE FALLS  SUNNY      1  -6  70 SW6       30.57S WCI -10
CANBY          SUNNY      7  -4  62 W12       30.54S WCI  -9
MARSHALL       SUNNY      3  -8  60 W9        30.54S WCI -11
REDWOOD FALLS  SUNNY      2  -8  63 W6        30.56S WCI  -9
OLIVIA         SUNNY      1  -6  71 W5        30.54S WCI  -8
PIPESTONE      SUNNY     -2  -6  84 W3        30.49S
WINDOM         SUNNY      1  -6  71 SW7       30.52S WCI -11
WORTHINGTON    SUNNY     21 -11  23 W8        30.53S WCI  12
JACKSON        SUNNY      3  -6  66 SW5       30.52S WCI  -6
TRACY          SUNNY      5  -4  66 W7        30.53S WCI  -7
SLAYTON        SUNNY      1  -8  68 CALM      30.51S
$$
MNZ065>067-074>077-082>085-091>093-271700-
   South Central Minnesota

CITY           SKY/WX    TMP DP  RH WIND       PRES   REMARKS
MANKATO        SUNNY      0  -9  65 W5        30.56S WCI -10
NEW ULM        SUNNY      0  -8  71 W6        30.56S WCI -12
ST JAMES       SUNNY      1  -8  66 SW3       30.57F
FAIRMONT       SUNNY      1  -8  66 W8        30.54S WCI -12
GLENCOE        SUNNY      2  -4  74 SW5       30.55S WCI  -7
FARIBAULT      SUNNY      0  -8  71 SW5       30.56R WCI -10
OWATONNA       SUNNY     -4  -9  77 S6        30.55R WCI -16
WASECA         SUNNY     -4  -8  84 W5        30.57R WCI -15
ALBERT LEA     SUNNY     -2  -8  78 W3        30.55R
$$
MNZ078>079-086>088-094>096-271700-
   Southeast Minnesota

CITY           SKY/WX    TMP DP  RH WIND       PRES   REMARKS
ROCHESTER      SUNNY     -4  -9  79 W6        30.53R WCI -16
RED WING       SUNNY      3  -6  66 W5        30.57R WCI  -6
STANTON        SUNNY      1  -7  70 SW5       30.55S WCI  -9
DODGE CENTER   SUNNY     -4  -8  84 W6        30.51S WCI -16
WINONA         SUNNY      1  -8  66 CALM      30.61S
AUSTIN         MOSUNNY   -4  -8  84 CALM      30.55R
PRESTON        SUNNY     -4 -10  75 W3        30.55R
$$
ABBREVIATIONS USED IN REMARKS
   TC - TEMPERATURES IN CELSIUS
  WCI - WIND CHILL INDEX
   HX - HEAT INDEX
  VSB - VISIBILITY
$$



USA.gov is the U.S. government's official web portal to all federal, state and local government web resources and services.